Batesville, AR

6:27 PM CDT on August 28, 2016 (GMT -0500)
Batesville Regional

Weather History for KBVX - March, 2014

Change the Weather History Date:

Wednesday, March 12, 2014

  Actual Average Record
Temperature  
Mean Temperature 52 °F -  
Max Temperature 62 °F 61 °F 89 °F (1967)
Min Temperature 39 °F 40 °F 12 °F (1998)
Degree Days  
Heating Degree Days 14    
Growing Degree Days 2 (Base 50)    
Moisture  
Dew Point 29 °F    
Average Humidity 47    
Maximum Humidity 82    
Minimum Humidity 24    
Precipitation  
Precipitation 0.00 in - - ()
Sea Level Pressure  
Sea Level Pressure 29.96 in    
Wind  
Wind Speed 11 mph (NW)    
Max Wind Speed 21 mph    
Max Gust Speed 37 mph    
Visibility 10 miles    
Events      
Averages and records for this station are not official NWS values.
T = Trace of Precipitation, MM = Missing Value Source: NWS Daily Summary

Daily Weather History Graph

Daily Weather History Graph

Search for Another Location

Airport or City:

Trip Planner

Search our weather history database for the weather conditions in past years. The results will help you decide how hot, cold, wet, or windy it might be!

Date:

Astronomy

Mar. 12, 2014 Rise Set
Actual Time 7:21 AM CDT 7:11 PM CDT
Civil Twilight 6:56 AM CDT 7:37 PM CDT
Nautical Twilight 6:26 AM CDT 8:06 PM CDT
Astronomical Twilight 5:56 AM CDT 8:36 PM CDT
Moon 3:48 PM CDT (3/12) 4:47 AM CDT (3/12)
Length of Visible Light 12h 40m
Length of Day
11h 50m
Waxing Gibbous, 85% of the Moon is Illuminated
Mar 12
Waxing Gibbous
Mar 16
Full
Mar 23
Last Quarter
Mar 30
New
Apr 7
First Quarter

Hourly Weather History & Observations

Time (CDT) Temp. Windchill Dew Point Humidity Pressure Visibility Wind Dir Wind Speed Gust Speed Precip Events Conditions
12:15 AM 62.6 °F - 57.2 °F 82% 29.55 in 10.0 mi SSW 4.6 mph - N/A   Clear
12:35 AM 62.6 °F - 57.2 °F 82% 29.55 in 10.0 mi South 6.9 mph - N/A   Clear
12:55 AM 62.6 °F - 55.4 °F 77% 29.54 in 10.0 mi SW 10.4 mph 17.3 mph N/A   Clear
1:15 AM 62.6 °F - 55.4 °F 77% 29.54 in 10.0 mi SW 13.8 mph 21.9 mph N/A   Clear
1:35 AM 62.6 °F - 55.4 °F 77% 29.53 in 10.0 mi SSW 12.7 mph 19.6 mph N/A   Clear
1:55 AM 62.6 °F - 55.4 °F 77% 29.55 in 10.0 mi SW 11.5 mph 17.3 mph N/A   Clear
2:15 AM 62.6 °F - 55.4 °F 77% 29.56 in 10.0 mi WSW 8.1 mph - N/A   Mostly Cloudy
2:35 AM 62.6 °F - 53.6 °F 72% 29.60 in 7.0 mi WNW 18.4 mph 36.8 mph N/A   Overcast
2:55 AM 59.0 °F - 46.4 °F 63% 29.63 in 10.0 mi WNW 16.1 mph 28.8 mph N/A   Overcast
3:15 AM 55.4 °F - 44.6 °F 67% 29.65 in 10.0 mi WNW 15.0 mph 33.4 mph N/A   Mostly Cloudy
3:35 AM 53.6 °F - 42.8 °F 67% 29.67 in 10.0 mi NW 12.7 mph 29.9 mph N/A   Mostly Cloudy
3:55 AM 51.8 °F - 41.0 °F 67% 29.69 in 10.0 mi NW 15.0 mph 26.5 mph N/A   Overcast
4:15 AM 48.2 °F - 41.0 °F 76% 29.70 in 10.0 mi NW 12.7 mph 31.1 mph N/A   Overcast
4:35 AM 48.2 °F - 37.4 °F 66% 29.72 in 10.0 mi NW 17.3 mph 36.8 mph N/A   Overcast
4:55 AM 48.2 °F - 37.4 °F 66% 29.73 in 10.0 mi WNW 17.3 mph 31.1 mph N/A   Overcast
5:15 AM 48.2 °F - 37.4 °F 66% 29.75 in 10.0 mi WNW 18.4 mph 26.5 mph N/A   Overcast
5:35 AM 46.4 °F 40.1 °F 33.8 °F 62% 29.79 in 10.0 mi NW 15.0 mph 32.2 mph N/A   Overcast
5:55 AM 44.6 °F 38.8 °F 32.0 °F 61% 29.81 in 10.0 mi NW 11.5 mph 31.1 mph N/A   Overcast
6:15 AM 44.6 °F 36.9 °F 32.0 °F 61% 29.83 in 10.0 mi NW 18.4 mph 28.8 mph N/A   Mostly Cloudy
6:35 AM 42.8 °F 35.8 °F 30.2 °F 61% 29.86 in 10.0 mi NW 13.8 mph 27.6 mph N/A   Mostly Cloudy
6:55 AM 42.8 °F 35.8 °F 30.2 °F 61% 29.88 in 10.0 mi NW 13.8 mph 26.5 mph N/A   Overcast
7:15 AM 42.8 °F 36.6 °F 30.2 °F 61% 29.90 in 10.0 mi NW 11.5 mph 23.0 mph N/A   Overcast
7:35 AM 42.8 °F 36.6 °F 30.2 °F 61% 29.91 in 10.0 mi NW 11.5 mph 23.0 mph N/A   Overcast
7:55 AM 42.8 °F 36.6 °F 30.2 °F 61% 29.93 in 10.0 mi NW 11.5 mph 27.6 mph N/A   Overcast
8:15 AM 44.6 °F 39.7 °F 32.0 °F 61% 29.94 in 10.0 mi NW 9.2 mph 23.0 mph N/A   Overcast
8:35 AM 44.6 °F 38.8 °F 30.2 °F 57% 29.95 in 10.0 mi NW 11.5 mph 20.7 mph N/A   Overcast
8:55 AM 44.6 °F 38.4 °F 30.2 °F 57% 29.97 in 10.0 mi NNW 12.7 mph 23.0 mph N/A   Overcast
9:15 AM 44.6 °F 38.8 °F 30.2 °F 57% 29.99 in 10.0 mi WNW 11.5 mph 18.4 mph N/A   Overcast
9:35 AM 44.6 °F 39.2 °F 28.4 °F 53% 30.00 in 10.0 mi NW 10.4 mph 29.9 mph N/A   Mostly Cloudy
9:55 AM 44.6 °F 36.4 °F 26.6 °F 49% 30.02 in 10.0 mi NW 20.7 mph 28.8 mph N/A   Mostly Cloudy
10:15 AM 44.6 °F 37.4 °F 26.6 °F 49% 30.03 in 10.0 mi NW 16.1 mph 25.3 mph N/A   Partly Cloudy
10:35 AM 44.6 °F 39.2 °F 24.8 °F 46% 30.04 in 10.0 mi NNW 10.4 mph 27.6 mph N/A   Partly Cloudy
10:55 AM 46.4 °F 39.8 °F 24.8 °F 43% 30.05 in 10.0 mi NW 16.1 mph 26.5 mph N/A   Scattered Clouds
11:15 AM 46.4 °F 41.9 °F 26.6 °F 46% 30.06 in 10.0 mi NW 9.2 mph 29.9 mph N/A   Scattered Clouds
11:35 AM 46.4 °F 41.5 °F 26.6 °F 46% 30.06 in 10.0 mi NW 10.4 mph 21.9 mph N/A   Scattered Clouds
11:55 AM 48.2 °F - 24.8 °F 40% 30.07 in 10.0 mi NNW 11.5 mph 24.2 mph N/A   Partly Cloudy
12:15 PM 48.2 °F - 24.8 °F 40% 30.07 in 10.0 mi NW 11.5 mph 23.0 mph N/A   Clear
12:35 PM 50.0 °F - 23.0 °F 35% 30.07 in 10.0 mi NNW 10.4 mph 26.5 mph N/A   Clear
12:55 PM 50.0 °F - 21.2 °F 32% 30.08 in 10.0 mi NW 12.7 mph 24.2 mph N/A   Clear
1:15 PM 51.8 °F - 21.2 °F 30% 30.08 in 10.0 mi NNW 16.1 mph 28.8 mph N/A   Clear
1:35 PM 51.8 °F - 21.2 °F 30% 30.09 in 10.0 mi NNW 12.7 mph 28.8 mph N/A   Clear
1:55 PM 51.8 °F - 21.2 °F 30% 30.08 in 10.0 mi NNW 11.5 mph 27.6 mph N/A   Clear
2:15 PM 53.6 °F - 21.2 °F 28% 30.07 in 10.0 mi NW 16.1 mph 26.5 mph N/A   Clear
2:35 PM 53.6 °F - 19.4 °F 26% 30.07 in 10.0 mi NW 11.5 mph 24.2 mph N/A   Clear
2:55 PM 53.6 °F - 19.4 °F 26% 30.07 in 10.0 mi NW 13.8 mph 27.6 mph N/A   Clear
3:15 PM 53.6 °F - 19.4 °F 26% 30.07 in 10.0 mi NNW 6.9 mph 24.2 mph N/A   Clear
3:35 PM 53.6 °F - 19.4 °F 26% 30.08 in 10.0 mi NW 13.8 mph 21.9 mph N/A   Clear
3:55 PM 53.6 °F - 19.4 °F 26% 30.08 in 10.0 mi NW 15.0 mph 21.9 mph N/A   Clear
4:15 PM 53.6 °F - 17.6 °F 24% 30.08 in 10.0 mi NW 8.1 mph 24.2 mph N/A   Clear
4:35 PM 55.4 °F - 19.4 °F 25% 30.08 in 10.0 mi NW 10.4 mph 18.4 mph N/A   Clear
4:55 PM 55.4 °F - 19.4 °F 25% 30.08 in 10.0 mi NW 11.5 mph 19.6 mph N/A   Clear
5:15 PM 55.4 °F - 19.4 °F 25% 30.08 in 10.0 mi NW 11.5 mph 23.0 mph N/A   Clear
5:35 PM 53.6 °F - 19.4 °F 26% 30.09 in 10.0 mi NW 9.2 mph 21.9 mph N/A   Clear
5:55 PM 53.6 °F - 17.6 °F 24% 30.09 in 10.0 mi WNW 9.2 mph 20.7 mph N/A   Clear
6:15 PM 53.6 °F - 17.6 °F 24% 30.09 in 10.0 mi WNW 10.4 mph 19.6 mph N/A   Clear
6:35 PM 51.8 °F - 19.4 °F 28% 30.11 in 10.0 mi NW 8.1 mph 16.1 mph N/A   Clear
6:55 PM 51.8 °F - 17.6 °F 26% 30.11 in 10.0 mi NW 9.2 mph 16.1 mph N/A   Clear
7:15 PM 51.8 °F - 17.6 °F 26% 30.12 in 10.0 mi NW 6.9 mph - N/A   Clear
7:35 PM 48.2 °F - 17.6 °F 30% 30.12 in 10.0 mi NW 4.6 mph - N/A   Clear
7:55 PM 48.2 °F - 19.4 °F 32% 30.14 in 10.0 mi NW 4.6 mph - N/A   Clear
8:15 PM 48.2 °F - 19.4 °F 32% 30.14 in 10.0 mi NNW 4.6 mph - N/A   Clear
8:35 PM 48.2 °F - 19.4 °F 32% 30.15 in 10.0 mi NW 3.5 mph - N/A   Clear
8:55 PM 46.4 °F 44.3 °F 19.4 °F 34% 30.16 in 10.0 mi NW 4.6 mph - N/A   Clear
9:15 PM 46.4 °F - 19.4 °F 34% 30.17 in 10.0 mi Calm Calm - N/A   Clear
9:35 PM 44.6 °F 43.1 °F 19.4 °F 37% 30.18 in 10.0 mi WNW 3.5 mph - N/A   Clear
9:55 PM 44.6 °F - 19.4 °F 37% 30.18 in 10.0 mi Calm Calm - N/A   Clear
10:15 PM 42.8 °F 41.1 °F 21.2 °F 42% 30.19 in 10.0 mi West 3.5 mph - N/A   Clear
10:35 PM 42.8 °F - 21.2 °F 42% 30.19 in 10.0 mi Calm Calm - N/A   Clear
10:55 PM 41.0 °F - 21.2 °F 45% 30.18 in 10.0 mi Calm Calm - N/A   Clear
11:15 PM 41.0 °F - 24.8 °F 53% 30.18 in 10.0 mi Calm Calm - N/A   Clear
11:35 PM 41.0 °F - 21.2 °F 45% 30.18 in 10.0 mi Calm Calm - N/A   Clear
11:55 PM 39.2 °F - 23.0 °F 52% 30.18 in 10.0 mi Calm Calm - N/A   Clear